Location: Alafon
(8.4500°N, 4.2333°E)
Time: 01:22:42
(UTC+00:00)

GEOS 3 Rocket - Pass Details

Date: 05 July 2020
Orbit: 771 x 848 km, 115.0° (Epoch: 06 August)

Event Time Altitude Azimuth Distance (km) Brightness Sun altitude
Rises 19:27:23 0° 26° (NNE) 3,394 6.9 -19.1°
Reaches altitude 10° 19:29:43 10° 25° (NNE) 2,455 6.1 -19.6°
Maximum altitude 19:35:04 80° 300° (WNW) 850 3.7 -20.8°
Drops below altitude 10° 19:40:22 10° 212° (SSW) 2,423 6.1 -21.9°
Sets 19:42:39 0° 211° (SSW) 3,346 6.8 -22.4°
